| time (UTC) | temp F | wind direction | speed MPH | gust MPH | rain 1hr in | rain 24hr in | rain mn in | humidity % | barometer mb |
| 20260906093006 | 57 | 188 | 2.0 | 5.0 | 0.00 | 0.09 | 0.05 | 85 | 1021.6 |
| 20260906092005 | 57 | 188 | 3.0 | 5.0 | 0.00 | 0.09 | 0.05 | 84 | 1021.5 |
| 20260906091004 | 57 | 189 | 4.0 | 6.0 | 0.00 | 0.09 | 0.05 | 84 | 1021.5 |
| 20260906090004 | 57 | 213 | 1.0 | 3.0 | 0.00 | 0.09 | 0.05 | 82 | 1021.4 |
| 20260906085006 | 57 | 213 | 0.0 | 0.0 | 0.00 | 0.09 | 0.05 | 82 | 1021.2 |
| 20260906084005 | 57 | 213 | 0.0 | 0.0 | 0.00 | 0.09 | 0.05 | 81 | 1021.1 |
| 20260906083005 | 57 | 213 | 0.0 | 0.0 | 0.00 | 0.09 | 0.05 | 80 | 1021.1 |
| 20260906082005 | 58 | 213 | 0.0 | 2.0 | 0.00 | 0.09 | 0.05 | 79 | 1020.9 |
| 20260906080004 | 59 | 213 | 1.0 | 3.0 | 0.00 | 0.09 | 0.05 | 78 | 1020.8 |
| 20260906075005 | 59 | 213 | 1.0 | 3.0 | 0.00 | 0.09 | 0.05 | 77 | 1020.7 |
| 20260906074005 | 59 | 213 | 2.0 | 7.0 | 0.00 | 0.09 | 0.05 | 76 | 1020.7 |
| 20260906073005 | 60 | 248 | 3.0 | 7.0 | 0.00 | 0.09 | 0.05 | 74 | 1020.5 |
| 20260906072005 | 60 | 252 | 4.0 | 7.0 | 0.00 | 0.09 | 0.05 | 75 | 1020.5 |
| 20260906071006 | 60 | 243 | 2.0 | 5.0 | 0.00 | 0.09 | 0.05 | 74 | 1020.5 |
| 20260906070005 | 60 | 244 | 3.0 | 8.0 | 0.00 | 0.10 | 0.05 | 74 | 1020.3 |
| 20260906065005 | 60 | 254 | 3.0 | 9.0 | 0.00 | 0.10 | 0.05 | 73 | 1020.4 |
| 20260906064005 | 60 | 258 | 4.0 | 12.0 | 0.00 | 0.10 | 0.05 | 74 | 1020.3 |
| 20260906063005 | 60 | 252 | 6.0 | 12.0 | 0.00 | 0.10 | 0.05 | 74 | 1020.3 |
| 20260906062005 | 60 | 247 | 6.0 | 12.0 | 0.00 | 0.10 | 0.05 | 75 | 1020.4 |
| 20260906061005 | 60 | 254 | 3.0 | 10.0 | 0.00 | 0.10 | 0.05 | 76 | 1020.3 |
| 20260906060004 | 60 | 243 | 5.0 | 12.0 | 0.00 | 0.10 | 0.05 | 76 | 1020.2 |
| 20260906055006 | 61 | 218 | 5.0 | 10.0 | 0.00 | 0.10 | 0.05 | 75 | 1020.1 |
| 20260906054005 | 61 | 249 | 5.0 | 10.0 | 0.00 | 0.10 | 0.05 | 74 | 1020.0 |
| 20260906053006 | 62 | 249 | 5.0 | 10.0 | 0.00 | 0.10 | 0.05 | 74 | 1019.9 |
| 20260906051006 | 62 | 234 | 5.0 | 10.0 | 0.00 | 0.10 | 0.05 | 71 | 1019.9 |
| 20260906050004 | 63 | 256 | 5.0 | 9.0 | 0.00 | 0.10 | 0.05 | 71 | 1019.8 |
| 20260906044005 | 62 | 273 | 2.0 | 8.0 | 0.00 | 0.10 | 0.05 | 71 | 1019.4 |
| 20260906043005 | 63 | 269 | 3.0 | 7.0 | 0.00 | 0.10 | 0.05 | 72 | 1019.5 |
| 20260906042005 | 63 | 271 | 3.0 | 7.0 | 0.00 | 0.10 | 0.05 | 71 | 1019.4 |
| 20260906041005 | 64 | 279 | 2.0 | 8.0 | 0.00 | 0.10 | 0.05 | 74 | 1019.5 |
| 20260906035004 | 62 | 265 | 5.0 | 8.0 | 0.00 | 0.10 | 0.05 | 78 | 1019.4 |
| 20260906034006 | 62 | 246 | 6.0 | 10.0 | 0.00 | 0.10 | 0.05 | 77 | 1019.6 |
| 20260906033005 | 61 | 253 | 3.0 | 7.0 | 0.00 | 0.10 | 0.05 | 78 | 1019.6 |
| 20260906032005 | 61 | 253 | 2.0 | 9.0 | 0.00 | 0.10 | 0.05 | 78 | 1019.7 |
| 20260906030005 | 63 | 242 | 3.0 | 9.0 | 0.00 | 0.10 | 0.05 | 77 | 1019.6 |
| 20260906025005 | 63 | 201 | 4.0 | 10.0 | 0.00 | 0.10 | 0.05 | 78 | 1019.7 |
| 20260906024004 | 62 | 202 | 2.0 | 6.0 | 0.00 | 0.10 | 0.05 | 81 | 1019.8 |
| 20260906022005 | 61 | 203 | 3.0 | 8.0 | 0.00 | 0.14 | 0.05 | 81 | 1020.0 |
| 20260906021005 | 60 | 243 | 4.0 | 8.0 | 0.00 | 0.14 | 0.05 | 82 | 1020.1 |
| 20260906020005 | 60 | 264 | 4.0 | 8.0 | 0.00 | 0.14 | 0.05 | 83 | 1020.1 |
| 20260906015005 | 59 | 261 | 5.0 | 8.0 | 0.00 | 0.15 | 0.05 | 85 | 1020.1 |
| 20260906014004 | 59 | 245 | 4.0 | 8.0 | 0.00 | 0.15 | 0.05 | 86 | 1020.1 |
| 20260906013005 | 59 | 261 | 2.0 | 7.0 | 0.00 | 0.15 | 0.05 | 87 | 1020.1 |
| 20260906012005 | 58 | 280 | 4.0 | 7.0 | 0.00 | 0.15 | 0.05 | 88 | 1020.2 |
| 20260906011005 | 58 | 281 | 3.0 | 7.0 | 0.00 | 0.15 | 0.05 | 88 | 1020.1 |
| 20260906005005 | 58 | 257 | 2.0 | 7.0 | 0.00 | 0.15 | 0.05 | 88 | 1020.2 |
| 20260906003004 | 58 | 281 | 3.0 | 9.0 | 0.00 | 0.15 | 0.05 | 88 | 1020.0 |
| 20260906002005 | 58 | 269 | 5.0 | 8.0 | 0.00 | 0.15 | 0.05 | 89 | 1019.9 |
| 20260906001008 | 57 | 273 | 4.0 | 8.0 | 0.00 | 0.15 | 0.05 | 89 | 1019.8 |
| 20260906000005 | 57 | 279 | 2.0 | 6.0 | 0.00 | 0.15 | 0.05 | 89 | 1019.8 |
| 20260905235006 | 57 | 276 | 2.0 | 3.0 | 0.00 | 0.15 | 0.05 | 89 | 1019.7 |
| 20260905233005 | 57 | 253 | 3.0 | 8.0 | 0.00 | 0.15 | 0.05 | 90 | 1019.5 |
| 20260905232007 | 58 | 253 | 6.0 | 12.0 | 0.00 | 0.15 | 0.05 | 90 | 1019.4 |
| 20260905231006 | 57 | 278 | 4.0 | 8.0 | 0.00 | 0.15 | 0.05 | 91 | 1019.2 |
| 20260905230005 | 56 | 271 | 3.0 | 8.0 | 0.00 | 0.15 | 0.05 | 91 | 1019.1 |
| 20260905225005 | 56 | 288 | 3.0 | 7.0 | 0.00 | 0.15 | 0.05 | 91 | 1018.9 |
| 20260905223005 | 56 | 270 | 5.0 | 9.0 | 0.00 | 0.15 | 0.05 | 91 | 1018.5 |
| 20260905222005 | 55 | 261 | 5.0 | 8.0 | 0.00 | 0.15 | 0.05 | 91 | 1018.4 |
| 20260905221006 | 55 | 249 | 3.0 | 7.0 | 0.00 | 0.15 | 0.05 | 91 | 1018.3 |
| 20260905220006 | 54 | 240 | 2.0 | 8.0 | 0.00 | 0.15 | 0.05 | 91 | 1018.1 |
| 20260905215005 | 54 | 264 | 3.0 | 8.0 | 0.00 | 0.15 | 0.05 | 91 | 1018.1 |
| 20260905214006 | 54 | 259 | 2.0 | 7.0 | 0.00 | 0.15 | 0.05 | 91 | 1017.9 |
| 20260905212005 | 54 | 236 | 3.0 | 8.0 | 0.00 | 0.18 | 0.05 | 91 | 1017.6 |
| 20260905211005 | 54 | 265 | 3.0 | 6.0 | 0.00 | 0.20 | 0.05 | 91 | 1017.4 |
| 20260905210005 | 54 | 273 | 3.0 | 6.0 | 0.00 | 0.22 | 0.05 | 91 | 1017.1 |
| 20260905205005 | 54 | 275 | 2.0 | 7.0 | 0.00 | 0.25 | 0.05 | 91 | 1016.9 |
| 20260905204005 | 54 | 268 | 2.0 | 8.0 | 0.00 | 0.28 | 0.05 | 91 | 1016.6 |
| 20260905203005 | 54 | 251 | 3.0 | 12.0 | 0.00 | 0.30 | 0.05 | 91 | 1016.3 |
| 20260905202005 | 54 | 246 | 5.0 | 8.0 | 0.00 | 0.32 | 0.05 | 91 | 1016.3 |
| 20260905200005 | 54 | 247 | 5.0 | 12.0 | 0.00 | 0.33 | 0.05 | 91 | 1016.0 |
| 20260905195005 | 54 | 248 | 6.0 | 12.0 | 0.00 | 0.33 | 0.05 | 91 | 1015.9 |
| 20260905193005 | 54 | 228 | 7.0 | 13.0 | 0.00 | 0.36 | 0.05 | 90 | 1015.6 |
| 20260905192005 | 54 | 232 | 4.0 | 13.0 | 0.00 | 0.36 | 0.05 | 90 | 1015.6 |
| 20260905191005 | 54 | 239 | 6.0 | 16.0 | 0.00 | 0.36 | 0.05 | 90 | 1015.5 |
| 20260905190006 | 54 | 251 | 7.0 | 18.0 | 0.00 | 0.38 | 0.05 | 90 | 1015.3 |
| 20260905185005 | 54 | 242 | 6.0 | 14.0 | 0.00 | 0.41 | 0.05 | 91 | 1015.2 |
| 20260905184005 | 54 | 253 | 7.0 | 14.0 | 0.02 | 0.44 | 0.05 | 91 | 1015.1 |
| 20260905183007 | 54 | 237 | 6.0 | 14.0 | 0.02 | 0.44 | 0.05 | 90 | 1014.8 |
| 20260905182005 | 55 | 238 | 7.0 | 16.0 | 0.02 | 0.45 | 0.05 | 90 | 1014.5 |
| 20260905181005 | 55 | 250 | 7.0 | 12.0 | 0.02 | 0.45 | 0.05 | 90 | 1014.4 |
| 20260905180005 | 55 | 247 | 6.0 | 14.0 | 0.02 | 0.45 | 0.05 | 90 | 1014.2 |
| 20260905174005 | 55 | 248 | 4.0 | 14.0 | 0.00 | 0.48 | 0.03 | 90 | 1013.8 |
| 20260905171005 | 55 | 247 | 7.0 | 14.0 | 0.00 | 0.51 | 0.03 | 90 | 1013.1 |
| 20260905170004 | 55 | 238 | 8.0 | 17.0 | 0.00 | 0.51 | 0.03 | 90 | 1012.9 |
| 20260905165005 | 55 | 249 | 7.0 | 17.0 | 0.00 | 0.51 | 0.03 | 91 | 1012.8 |
| 20260905164004 | 54 | 245 | 6.0 | 15.0 | 0.01 | 0.52 | 0.03 | 91 | 1012.5 |
| 20260905163006 | 54 | 235 | 8.0 | 16.0 | 0.02 | 0.53 | 0.03 | 91 | 1012.5 |
| 20260905162008 | 54 | 260 | 8.0 | 15.0 | 0.02 | 0.53 | 0.03 | 91 | 1012.3 |
| 20260905161005 | 54 | 251 | 10.0 | 18.0 | 0.02 | 0.54 | 0.03 | 91 | 1012.1 |
| 20260905160006 | 54 | 249 | 6.0 | 14.0 | 0.02 | 0.54 | 0.03 | 91 | 1012.0 |
| 20260905155005 | 54 | 264 | 7.0 | 16.0 | 0.02 | 0.54 | 0.03 | 91 | 1011.8 |
| 20260905153006 | 54 | 261 | 8.0 | 14.0 | 0.00 | 0.52 | 0.01 | 91 | 1011.4 |
| 20260905152005 | 54 | 262 | 9.0 | 20.0 | 0.00 | 0.53 | 0.01 | 91 | 1011.2 |
| 20260905151005 | 53 | 276 | 7.0 | 14.0 | 0.00 | 0.53 | 0.01 | 91 | 1011.0 |
| 20260905150005 | 53 | 270 | 9.0 | 16.0 | 0.01 | 0.54 | 0.01 | 91 | 1010.8 |
| 20260905144005 | 53 | 269 | 7.0 | 16.0 | 0.01 | 0.59 | 0.01 | 91 | 1010.3 |
| 20260905143006 | 53 | 275 | 10.0 | 17.0 | 0.01 | 0.62 | 0.01 | 91 | 1010.1 |
| 20260905142005 | 53 | 275 | 12.0 | 20.0 | 0.04 | 0.62 | 0.01 | 91 | 1010.0 |
| 20260905141005 | 53 | 254 | 9.0 | 17.0 | 0.04 | 0.62 | 0.01 | 91 | 1009.8 |
| 20260905140005 | 53 | 266 | 9.0 | 20.0 | 0.03 | 0.61 | 0.00 | 91 | 1009.7 |
| 20260905135005 | 53 | 270 | 9.0 | 18.0 | 0.03 | 0.61 | 0.61 | 91 | 1009.6 |
| 20260905134006 | 53 | 281 | 10.0 | 18.0 | 0.03 | 0.61 | 0.61 | 91 | 1009.3 |
| 20260905133004 | 53 | 277 | 10.0 | 20.0 | 0.04 | 0.61 | 0.61 | 90 | 1009.0 |
| 20260905132005 | 53 | 275 | 9.0 | 17.0 | 0.01 | 0.58 | 0.58 | 90 | 1008.8 |
| 20260905131004 | 53 | 278 | 8.0 | 21.0 | 0.01 | 0.58 | 0.58 | 89 | 1008.7 |
| 20260905130005 | 53 | 264 | 10.0 | 21.0 | 0.01 | 0.58 | 0.58 | 88 | 1008.7 |
| 20260905125005 | 53 | 283 | 14.0 | 23.0 | 0.01 | 0.58 | 0.58 | 87 | 1008.6 |
| 20260905124006 | 54 | 281 | 10.0 | 20.0 | 0.01 | 0.58 | 0.58 | 86 | 1008.3 |
| 20260905122007 | 54 | 293 | 12.0 | 23.0 | 0.00 | 0.57 | 0.57 | 83 | 1007.9 |
| 20260905121006 | 54 | 280 | 10.0 | 21.0 | 0.00 | 0.57 | 0.57 | 82 | 1007.8 |
| 20260905120005 | 55 | 289 | 9.0 | 20.0 | 0.00 | 0.57 | 0.57 | 82 | 1007.8 |
| 20260905115005 | 55 | 288 | 10.0 | 21.0 | 0.00 | 0.57 | 0.57 | 81 | 1007.7 |
| 20260905113005 | 54 | 287 | 13.0 | 24.0 | 0.00 | 0.57 | 0.57 | 81 | 1007.4 |
| 20260905112007 | 54 | 277 | 9.0 | 26.0 | 0.00 | 0.57 | 0.57 | 81 | 1007.3 |
| 20260905111005 | 54 | 283 | 13.0 | 22.0 | 0.00 | 0.57 | 0.57 | 81 | 1007.1 |
| 20260905110005 | 54 | 274 | 10.0 | 18.0 | 0.00 | 0.57 | 0.57 | 81 | 1007.2 |
| 20260905105005 | 54 | 279 | 13.0 | 26.0 | 0.00 | 0.57 | 0.57 | 80 | 1006.9 |
| 20260905104006 | 54 | 281 | 11.0 | 20.0 | 0.00 | 0.57 | 0.57 | 80 | 1007.0 |
| 20260905103005 | 54 | 273 | 10.0 | 20.0 | 0.00 | 0.57 | 0.57 | 80 | 1006.8 |
| 20260905102005 | 54 | 286 | 10.0 | 21.0 | 0.00 | 0.57 | 0.57 | 80 | 1006.5 |
| 20260905101006 | 55 | 282 | 9.0 | 20.0 | 0.00 | 0.57 | 0.57 | 79 | 1006.4 |
| 20260905100005 | 54 | 289 | 12.0 | 22.0 | 0.00 | 0.57 | 0.57 | 80 | 1006.0 |
| 20260905095004 | 54 | 275 | 11.0 | 20.0 | 0.00 | 0.57 | 0.57 | 81 | 1006.0 |
| 20260905094005 | 54 | 305 | 7.0 | 13.0 | 0.00 | 0.57 | 0.57 | 81 | 1005.8 |